CAPE
0 0 0 0 287 834 1095 989 920 1018 1017 910 713 594 548 680 580 531 595 542 604 526 471 471 463 437 415 357 273 231 172 107 85 79 0 0 0 0 0 2 35 18 6
0 0 0 0 21 747 1051 1157 1050 1045 1001 802 858 609 475 489 501 596 760 751 744 792 743 646 503 505 437 455 375 258 177 176 141 47 4 4 0 0 0 0 1 0 0
0 0 0 0 0 29 525 1003 1158 1087 820 1088 896 524 473 490 604 554 585 556 728 702 630 521 435 385 330 336 258 202 136 88 64 18 39 15 0 0 0 0 0 0 0
0 0 0 0 0 0 151 275 693 976 1034 860 739 442 316 251 323 423 553 231 177 133 119 166 154 112 96 135 107 83 54 55 7 18 22 35 47 25 8 0 0 0 0
0 0 0 0 0 0 0 0 44 433 442 378 498 402 373 250 197 182 116 28 0 0 0 0 0 0 0 0 2 0 2 2 4 9 5 11 28 28 42 4 0 0 0
0 0 0 0 0 0 0 0 0 0 0 1 90 123 218 0 0 0 0 0 0 0 0 0 0 0 0 0 0 0 1 2 3 3 9 24 24 20 23 17 3 0 0
0 0 0 0 0 0 0 0 0 0 0 0 0 0 0 0 0 0 0 0 0 0 0 0 0 0 0 0 0 0 1 2 1 1 2 16 18 29 26 31 9 15 3
0 0 0 0 0 0 0 0 0 0 0 0 0 0 0 0 0 0 0 0 0 0 0 0 0 0 0 0 0 0 1 0 0 2 5 14 0 4 16 7 8 5 8
0 0 0 0 0 0 0 0 0 0 0 0 0 0 0 0 0 0 0 0 0 0 0 0 0 0 0 0 0 0 1 0 0 0 0 0 0 0 0 0 0 0 0
0 0 0 0 0 0 0 0 0 0 0 0 0 0 0 0 0 0 0 0 0 0 0 0 0 0 0 0 0 0 0 0 0 0 0 0 0 0 0 0 0 0 0
0 0 0 0 0 0 0 0 0 0 0 0 0 0 0 0 0 0 0 0 0 0 0 0 0 0 0 0 0 0 0 0 0 0 0 0 0 0 0 0 0 0 0
0 0 0 0 0 0 0 0 0 0 0 0 0 0 0 0 0 0 0 0 0 0 0 0 0 0 0 0 0 0 0 0 0 0 0 0 0 0 0 0 0 0 0
0 0 0 0 0 0 0 0 0 0 0 0 0 0 0 0 0 0 0 0 0 0 0 0 0 0 0 0 0 0 0 0 0 0 0 0 0 0 0 0 0 0 0
0 0 0 0 0 0 0 0 0 0 0 0 0 0 0 0 0 0 0 0 0 0 0 0 0 0 0 0 0 0 0 0 0 0 0 0 0 0 0 0 0 0 0
0 0 0 0 0 0 0 0 0 0 0 0 0 0 0 0 0 0 0 0 0 0 0 0 0 0 0 0 0 0 0 0 0 0 0 0 0 0 0 0 0 0 0
0 0 0 0 0 0 0 0 0 0 0 0 0 0 0 0 0 0 0 0 0 0 0 0 0 0 0 0 1 0 0 0 0 0 0 0 0 0 0 0 0 0 0
0 0 0 0 0 0 0 0 0 0 0 0 0 0 0 0 0 0 0 0 0 0 0 0 0 0 0 2 1 0 0 0 0 0 0 0 0 0 0 0 0 0 0
0 0 0 0 0 0 0 0 0 0 0 0 0 0 0 0 0 0 0 0 0 0 0 0 0 0 0 1 0 0 0 0 0 0 0 0 0 0 0 0 0 0 0
0 0 0 0 0 0 0 0 0 0 0 0 0 0 0 0 0 0 0 0 0 0 0 0 0 0 0 0 0 0 0 0 0 0 0 0 0 0 0 0 0 0 0
0 0 0 0 0 0 0 0 0 0 0 0 0 0 0 0 0 0 1 1 0 0 0 0 0 0 0 0 0 0 0 0 0 0 0 0 0 0 0 0 0 0 0
0 0 0 0 0 0 0 0 0 0 0 0 0 0 0 0 0 0 0 2 0 0 0 0 0 0 0 0 0 0 0 0 0 0 0 0 0 0 0 0 0 0 0
0 0 0 0 0 0 0 0 0 0 0 0 0 0 0 0 0 0 1 0 0 0 0 0 0 0 0 0 0 0 0 0 0 0 0 0 0 0 0 0 0 0 0
0 0 0 0 0 0 0 0 0 0 0 0 0 0 0 0 0 1 1 0 0 0 0 0 0 0 0 0 0 0 0 0 0 0 0 0 0 0 0 0 0 0 0
0 0 0 0 0 0 0 0 0 0 0 0 0 0 1 0 0 0 0 0 0 0 0 0 0 0 0 0 0 0 0 0 0 0 0 0 0 0 0 0 0 0 0
0 0 0 0 0 0 0 0 0 0 0 0 0 0 0 0 0 0 0 0 0 0 0 0 0 0 0 0 0 0 0 0 0 0 0 0 0 0 0 0 0 0 0
0 0 0 0 0 0 0 0 0 0 0 0 0 0 0 0 0 0 0 1 0 0 0 0 0 0 0 0 0 0 0 0 0 0 0 0 0 0 0 0 0 0 0
CIN
-0 -0 -0 -0 -116 -32 -13 -27 -27 -13 -4 -4 -10 -16 -19 -9 -10 -11 -1 -2 -4 -5 -5 -3 -1 -2 -3 -4 -4 -3 -3 -9 -12 -3 -0 -0 -0 -0 -0 -9 -9 -16 -28
-0 -0 -0 -0 -224 -71 -32 -17 -26 -20 -13 -23 -28 -23 -27 -22 -21 -17 -11 -10 -10 -7 -6 -4 -5 -3 -2 -3 -4 -4 -5 -4 -4 -3 -3 -2 -0 -0 -0 -0 -6 -0 -0
-0 -0 -0 -0 -0 -166 -108 -41 -23 -28 -38 -12 -22 -44 -52 -24 -22 -26 -25 -21 -10 -13 -25 -25 -22 -18 -20 -13 -13 -10 -6 -7 -7 -8 -2 -1 -0 -0 -0 -0 -0 -0 -0
-0 -0 -0 -0 -0 -0 -215 -171 -85 -38 -32 -40 -46 -40 -42 -39 -30 -23 -24 -70 -112 -121 -129 -76 -62 -62 -56 -35 -26 -21 -15 -7 -7 -6 -5 -6 -3 -1 -3 -0 -0 -0 -0
-0 -0 -0 -0 -0 -0 -0 -0 -298 -110 -100 -108 -106 -79 -67 -46 -84 -111 -91 -125 -0 -0 -0 -0 -0 -0 -0 -1 -3 -5 -5 -5 -5 -4 -4 -5 -5 -8 -1 -14 -0 -1 -0
-0 -0 -0 -0 -0 -0 -0 -0 -0 -0 -0 -243 -228 -205 -126 -0 -0 -0 -0 -0 -0 -0 -0 -0 -0 -0 -0 -0 -0 -0 -0 -1 -3 -5 -6 -5 -3 -8 -7 -5 -11 -0 -0
-0 -0 -0 -0 -0 -0 -0 -0 -0 -0 -0 -0 -0 -0 -0 -0 -0 -0 -0 -0 -0 -0 -0 -0 -0 -0 -0 -0 -0 -0 -1 -1 -1 -2 -1 -11 -5 -4 -7 -6 -9 -7 -15
-0 -0 -0 -0 -0 -0 -0 -0 -0 -0 -0 -0 -0 -0 -0 -0 -0 -0 -0 -0 -0 -0 -0 -0 -0 -0 -0 -0 -0 -0 -0 -0 -0 -2 -1 -5 -1 -23 -19 -10 -9 -3 -9
-0 -0 -0 -0 -0 -0 -0 -0 -0 -0 -0 -0 -0 -0 -0 -0 -0 -0 -0 -0 -0 -0 -0 -0 -0 -0 -0 -0 -0 -0 -3 -0 -0 -0 -0 -0 -0 -0 -0 -0 -0 -0 -0
-0 -0 -0 -0 -0 -0 -0 -0 -0 -0 -0 -0 -0 -0 -0 -0 -0 -0 -0 -0 -0 -0 -0 -0 -0 -0 -0 -0 -0 -0 -1 -0 -0 -0 -0 -0 -0 -0 -0 -0 -0 -0 -0
-0 -0 -0 -0 -0 -0 -0 -0 -0 -0 -0 -0 -0 -0 -0 -0 -0 -0 -0 -0 -0 -0 -0 -0 -0 -0 -0 -0 -0 -0 -0 -0 -0 -0 -0 -0 -0 -0 -0 -0 -0 -0 -0
-0 -0 -0 -0 -0 -0 -0 -0 -0 -0 -0 -0 -0 -0 -0 -0 -0 -0 -0 -0 -0 -0 -0 -0 -0 -0 -0 -0 -0 -0 -0 -0 -0 -0 -0 -0 -0 -0 -0 -0 -0 -0 -0
-0 -0 -0 -0 -0 -0 -0 -0 -0 -0 -0 -0 -0 -0 -0 -0 -0 -0 -0 -0 -0 -0 -0 -0 -0 -0 -0 -0 -0 -0 -0 -0 -0 -0 -0 -0 -0 -0 -0 -0 -0 -0 -0
-0 -0 -0 -0 -0 -0 -0 -0 -0 -0 -0 -0 -0 -0 -0 -0 -0 -0 -0 -0 -0 -0 -0 -0 -0 -0 -0 -0 -0 -0 -0 -0 -0 -0 -0 -0 -0 -0 -0 -0 -0 -0 -0
-0 -0 -0 -0 -0 -0 -0 -0 -0 -0 -0 -0 -0 -0 -0 -0 -0 -0 -0 -0 -0 -0 -0 -0 -0 -0 -0 -0 -0 -0 -0 -0 -0 -0 -0 -0 -0 -0 -0 -0 -0 -0 -0
-0 -0 -0 -0 -0 -0 -0 -0 -0 -0 -0 -0 -0 -0 -0 -0 -0 -0 -0 -0 -0 -0 -0 -0 -0 -0 -0 -0 -0 -0 -0 -0 -0 -0 -0 -0 -0 -0 -0 -0 -0 -0 -0
-0 -0 -0 -0 -0 -0 -0 -0 -0 -0 -0 -0 -0 -0 -0 -0 -0 -0 -0 -0 -0 -0 -0 -0 -0 -0 -0 -0 -0 -0 -0 -0 -0 -0 -0 -0 -0 -0 -0 -0 -0 -0 -0
-0 -0 -0 -0 -0 -0 -0 -0 -0 -0 -0 -0 -0 -0 -0 -0 -0 -0 -0 -0 -0 -0 -0 -0 -0 -0 -0 -0 -0 -0 -0 -0 -0 -0 -0 -0 -0 -0 -0 -0 -0 -0 -0
-0 -0 -0 -0 -0 -0 -0 -0 -0 -0 -0 -0 -0 -0 -0 -0 -0 -0 -0 -0 -0 -0 -0 -0 -0 -0 -0 -0 -0 -0 -0 -0 -0 -0 -0 -0 -0 -0 -0 -0 -0 -0 -0
-0 -0 -0 -0 -0 -0 -0 -0 -0 -0 -0 -0 -0 -0 -0 -0 -0 -0 -0 -0 -0 -0 -0 -0 -0 -0 -0 -0 -0 -0 -0 -0 -0 -0 -0 -0 -0 -0 -0 -0 -0 -0 -0
-0 -0 -0 -0 -0 -0 -0 -0 -0 -0 -0 -0 -0 -0 -0 -0 -0 -0 -0 -0 -0 -0 -0 -0 -0 -0 -0 -0 -0 -0 -0 -0 -0 -0 -0 -0 -0 -0 -0 -0 -0 -0 -0
-0 -0 -0 -0 -0 -0 -0 -0 -0 -0 -0 -0 -0 -0 -0 -0 -0 -0 -0 -0 -0 -0 -0 -0 -0 -0 -0 -0 -0 -0 -0 -0 -0 -0 -0 -0 -0 -0 -0 -0 -0 -0 -0
-0 -0 -0 -0 -0 -0 -0 -0 -0 -0 -0 -0 -0 -0 -0 -0 -0 -0 -0 -0 -0 -0 -0 -0 -0 -0 -0 -0 -0 -0 -0 -0 -0 -0 -0 -0 -0 -0 -0 -0 -0 -0 -0
-0 -0 -0 -0 -0 -0 -0 -0 -0 -0 -0 -0 -0 -0 -0 -0 -0 -0 -0 -0 -0 -0 -0 -0 -0 -0 -0 -0 -0 -0 -0 -0 -0 -0 -0 -0 -0 -0 -0 -0 -0 -0 -0
-0 -0 -0 -0 -0 -0 -0 -0 -0 -0 -0 -0 -0 -0 -0 -0 -0 -0 -0 -0 -0 -0 -0 -0 -0 -0 -0 -0 -0 -0 -0 -0 -0 -0 -0 -0 -0 -0 -0 -0 -0 -0 -0
-0 -0 -0 -0 -0 -0 -0 -0 -0 -0 -0 -0 -0 -0 -0 -0 -0 -0 -0 -0 -0 -0 -0 -0 -0 -0 -0 -0 -0 -0 -0 -0 -0 -0 -0 -0 -0 -0 -0 -0 -0 -0 -0
Wind_Speed
22 18 17 19 19 19 16 16 15 14 14 14 16 17 18 18 18 19 17 16 14 13 12 15 18 18 18 18 15 17 17 17 18 21 23 22 21 19 16 14 16 21 19
25 21 19 20 19 20 22 19 18 15 14 14 14 16 15 17 18 18 18 18 18 18 19 19 21 22 21 21 21 22 22 20 20 24 24 28 26 22 21 18 19 21 21
29 22 20 20 20 21 23 24 22 20 18 16 17 16 15 14 15 17 18 18 17 18 19 20 22 23 23 23 23 23 24 24 22 19 21 27 27 26 21 20 19 19 20
35 26 24 20 20 21 19 23 26 25 22 19 19 19 20 20 19 16 14 17 19 21 22 24 25 25 25 25 24 24 24 24 24 22 19 19 23 27 26 23 20 19 18
32 34 23 21 17 19 20 21 23 24 24 21 20 20 22 21 17 14 15 16 20 19 23 25 25 25 24 24 25 25 25 24 24 22 23 23 22 21 22 24 22 21 18
29 28 19 18 18 17 19 22 23 24 22 22 21 20 23 22 22 21 20 18 18 19 21 23 26 26 26 25 25 25 24 24 24 23 23 22 21 21 20 22 19 20 19
27 24 20 19 19 18 17 20 23 24 22 20 19 17 19 19 21 20 20 19 21 22 23 25 26 26 26 27 26 26 25 24 24 24 24 22 22 22 21 20 19 19 19
24 20 19 19 19 19 17 20 22 23 21 20 18 15 16 18 19 19 19 20 21 22 24 25 26 26 26 27 27 27 26 26 26 24 23 22 22 21 20 20 21 22 20
23 19 19 18 15 16 18 19 17 22 20 20 18 17 16 18 19 19 20 22 22 25 26 26 27 27 28 28 28 28 26 25 24 24 23 22 21 20 20 20 20 19 22
21 21 19 18 17 14 17 17 18 21 21 20 20 20 20 22 22 21 23 22 23 24 26 27 27 28 28 28 28 27 25 25 24 23 21 20 19 21 21 20 19 18 18
19 18 14 15 15 13 14 17 22 23 20 19 20 21 22 21 20 21 22 22 23 25 26 27 28 28 28 28 28 26 25 25 22 22 20 20 20 20 20 20 18 18 18
17 17 11 12 15 16 15 12 17 24 25 24 20 20 18 20 20 20 21 22 25 25 26 27 27 28 28 28 27 26 25 24 21 21 19 20 19 18 19 17 17 16 16
17 16 14 12 14 15 14 14 10 10 14 19 18 18 17 19 20 21 21 22 24 25 26 27 27 27 27 27 26 25 24 22 21 20 19 19 17 17 16 15 15 15 14
20 19 16 14 12 11 10 9 8 5 6 9 8 12 15 17 18 18 19 21 23 24 25 26 26 26 26 26 25 23 21 20 19 19 18 18 16 15 15 14 14 13 12
22 20 17 15 10 6 5 4 4 4 5 6 7 8 9 12 13 15 17 19 21 23 24 23 23 24 25 24 23 21 19 17 17 17 17 16 15 14 14 13 12 12 12
24 25 19 17 12 8 6 5 3 3 3 4 6 7 8 10 13 16 19 20 22 23 24 24 24 25 25 22 20 18 17 16 14 15 14 13 13 13 12 11 12 13 12
30 27 22 18 14 10 8 7 5 4 5 5 6 7 9 11 14 16 18 21 21 21 22 23 23 23 22 20 18 17 16 15 13 12 12 12 11 11 11 11 12 13 14
31 29 21 15 12 9 8 7 7 6 6 7 7 8 10 12 14 17 20 21 22 22 21 21 20 20 20 18 16 15 14 14 13 12 11 10 10 11 10 11 11 13 15
29 29 24 20 13 10 9 8 9 8 7 7 7 9 11 13 14 17 19 19 20 20 20 19 18 17 17 14 12 13 13 12 12 12 12 11 10 10 11 10 10 13 14
28 26 20 19 15 11 10 10 9 9 9 8 9 9 11 13 15 16 17 19 19 20 19 19 18 15 15 13 12 12 13 12 11 11 10 11 9 10 10 10 11 12 12
25 22 17 20 17 8 7 10 8 9 10 9 10 10 11 13 14 16 16 17 17 16 16 17 15 15 14 11 11 12 14 13 12 11 11 11 11 11 12 13 12 13 11
22 20 16 14 10 6 6 7 8 10 10 10 11 12 14 14 14 13 14 14 14 13 12 13 15 12 13 12 8 11 12 13 11 11 11 10 10 12 13 12 13 13 13
18 15 12 11 12 11 10 10 10 9 10 10 12 12 13 14 14 14 12 12 12 13 11 10 9 10 11 10 10 9 9 11 11 12 12 11 12 12 12 13 13 13 13
16 14 12 12 11 11 11 10 10 9 9 11 12 12 14 14 14 13 12 12 10 9 8 6 6 8 9 6 5 7 8 7 9 11 12 13 13 13 14 14 13 13 13
15 15 13 11 10 9 10 9 8 8 10 11 12 13 13 14 15 15 13 12 10 8 7 6 4 3 4 4 3 4 4 6 8 10 13 13 14 15 14 15 14 13 13
15 15 14 13 12 11 11 12 11 11 12 14 15 13 14 15 15 16 16 12 11 7 6 8 8 5 6 6 4 5 7 7 8 11 14 16 16 16 15 15 15 14 14
Wind_Direction
254 253 264 265 263 262 261 259 259 265 271 265 264 267 268 274 275 276 283 290 293 299 304 311 314 317 319 323 328 329 329 330 331 331 330 332 335 335 336 337 343 354 357
258 250 259 264 263 262 263 258 259 258 264 264 268 269 264 270 271 275 283 286 292 299 303 308 310 313 316 319 320 321 322 324 328 327 330 331 336 340 346 353 350 350 351
263 251 253 260 264 262 262 263 261 263 262 264 269 277 278 280 277 280 284 288 297 301 305 309 309 310 314 315 318 320 319 317 322 325 327 329 330 338 343 344 349 347 345
258 266 258 256 262 265 260 263 264 262 263 261 267 272 274 277 284 289 297 302 299 299 304 306 307 309 312 313 314 315 316 318 316 319 319 320 324 327 328 339 343 345 345
259 263 257 255 261 266 265 262 263 263 264 264 265 268 273 281 285 290 294 299 303 314 306 305 311 313 314 315 315 314 314 314 312 313 317 318 318 322 322 326 332 339 343
260 266 257 257 265 270 265 264 262 261 264 265 264 268 271 274 280 286 289 299 304 309 313 315 312 313 315 316 316 317 316 314 314 315 314 313 317 319 319 320 322 327 333
260 262 258 260 264 268 267 266 260 260 261 264 267 268 272 276 280 285 292 296 301 307 311 313 313 313 315 315 317 317 318 318 316 314 312 313 312 316 319 319 322 322 329
273 260 260 263 262 258 263 268 262 258 260 261 265 271 274 279 285 291 295 300 306 309 313 313 314 314 315 315 315 315 316 316 317 317 316 314 315 315 315 316 318 320 323
278 275 275 272 261 256 257 264 261 258 261 262 266 271 279 282 285 292 298 300 306 309 310 311 311 312 312 313 313 311 313 316 316 317 316 316 316 317 318 318 319 318 321
284 280 282 280 273 267 259 258 267 260 262 265 270 273 277 282 288 291 292 302 306 308 307 309 310 310 311 312 313 312 313 314 315 317 316 317 318 318 318 319 320 320 320
292 292 295 289 277 274 267 264 260 262 263 266 275 279 281 282 284 290 297 303 306 306 307 307 308 309 310 312 312 312 313 312 315 317 316 316 318 317 318 320 321 323 323
303 304 325 299 286 275 273 276 268 264 263 263 272 277 282 283 289 294 299 303 304 308 306 306 307 309 310 311 311 312 312 313 315 317 318 317 320 320 322 324 326 328 327
308 315 319 325 299 284 280 278 274 264 268 267 271 277 280 285 290 296 300 304 305 307 306 306 308 310 311 311 312 312 312 313 316 316 317 317 319 319 322 327 329 330 336
301 303 312 313 314 306 290 281 276 256 267 283 286 286 288 292 297 303 306 306 308 307 309 310 311 312 313 313 313 313 313 314 316 317 319 321 320 322 324 327 329 338 338
295 299 303 306 306 306 293 277 270 265 279 286 291 294 301 304 308 311 312 314 314 313 313 314 315 315 315 314 314 314 315 316 319 320 321 322 323 326 325 328 338 333 337
293 291 292 300 292 281 280 279 264 259 276 289 297 306 310 312 312 312 312 311 311 311 312 312 312 312 313 316 316 314 315 317 319 320 324 329 333 334 335 345 338 337 336
287 288 291 292 287 270 263 260 266 285 292 299 306 309 314 314 315 314 314 313 312 313 314 314 316 315 314 315 314 314 314 316 318 322 326 328 333 339 343 340 341 339 340
289 289 293 285 277 263 247 253 263 275 286 295 303 309 313 316 317 316 313 312 311 311 312 315 318 320 318 316 316 312 315 315 319 323 327 330 334 324 330 332 338 340 339
292 287 289 290 275 253 245 250 260 271 277 286 296 305 310 313 317 318 316 315 313 313 314 315 318 320 321 322 324 319 315 315 317 320 322 320 324 325 327 336 336 334 339
297 289 290 289 285 261 249 251 261 269 277 286 298 308 312 313 315 319 319 317 316 314 312 311 314 320 315 315 319 318 315 313 315 318 321 321 326 327 329 331 330 333 340
299 296 295 290 288 264 257 266 263 272 288 298 306 313 317 318 320 323 323 322 317 320 318 314 315 312 313 315 318 311 310 307 309 309 311 313 317 322 322 322 329 331 344
304 298 298 296 299 284 266 269 273 288 295 303 311 316 316 319 323 328 329 328 324 324 323 317 312 311 308 312 322 313 307 308 308 307 310 314 316 316 318 323 328 331 335
317 317 313 303 301 297 289 285 290 296 301 309 316 320 323 325 327 328 332 333 330 323 321 320 315 310 309 314 315 314 312 310 307 307 309 311 313 316 320 320 322 326 329
331 332 325 316 308 305 302 298 298 303 307 313 319 323 326 330 331 333 333 333 333 331 327 327 322 316 313 316 324 318 316 316 312 311 311 311 314 314 314 317 319 321 323
335 335 342 342 335 327 319 318 315 314 313 316 321 326 328 330 329 327 329 330 330 331 329 326 325 322 318 321 322 318 310 309 311 312 310 310 309 308 311 312 315 317 318
335 336 336 339 336 333 328 321 318 315 312 311 312 315 323 330 331 330 329 330 330 330 329 331 326 325 323 325 321 313 311 308 308 306 304 304 304 305 307 308 310 312 313